Norwood, MA

1:23 PM EST on January 17, 2017 (GMT -0500)
Norwood Memorial

Weather History for KOWD - November, 2012

Change the Weather History Date:

Saturday, November 17, 2012

  Actual Average Record
Temperature  
Mean Temperature 36 °F -  
Max Temperature 48 °F 48 °F 68 °F (2006)
Min Temperature 23 °F 28 °F 17 °F (1997)
Degree Days  
Heating Degree Days 30    
Moisture  
Dew Point 26 °F    
Average Humidity 83    
Maximum Humidity 100    
Minimum Humidity 50    
Precipitation  
Precipitation 0.00 in - - ()
Sea Level Pressure  
Sea Level Pressure 30.59 in    
Wind  
Wind Speed 1 mph (NNE)    
Max Wind Speed 9 mph    
Max Gust Speed -    
Visibility 6 miles    
Events Fog    
Averages and records for this station are not official NWS values.
T = Trace of Precipitation, MM = Missing Value Source: NWS Daily Summary

Daily Weather History Graph

Daily Weather History Graph

Search for Another Location

Airport or City:

Trip Planner

Search our weather history database for the weather conditions in past years. The results will help you decide how hot, cold, wet, or windy it might be!

Date:

Astronomy

Nov. 17, 2012 Rise Set
Actual Time 6:38 AM EST 4:21 PM EST
Civil Twilight 6:07 AM EST 4:51 PM EST
Nautical Twilight 5:33 AM EST 5:25 PM EST
Astronomical Twilight 5:00 AM EST 5:58 PM EST
Moon 10:20 AM EST 8:27 PM EST
Length of Visible Light 10h 43m
Length of Day
9h 42m
Waxing Crescent, 20% of the Moon is Illuminated
Nov 17
Waxing Crescent
Nov 20
First Quarter
Nov 28
Full
Dec 6
Last Quarter
Dec 13
New

Hourly Weather History & Observations

Time (EST) Temp. Windchill Dew Point Humidity Pressure Visibility Wind Dir Wind Speed Gust Speed Precip Events Conditions
12:53 AM 26.1 °F - 24.1 °F 92% 30.44 in 2.5 mi Calm Calm - N/A   Clear
12:59 AM 26.6 °F - 24.8 °F 93% 30.43 in 0.8 mi Calm Calm - N/A   Clear
1:08 AM 26.6 °F - 23.0 °F 86% 30.43 in 2.5 mi Calm Calm - N/A   Clear
1:15 AM 26.6 °F - 24.8 °F 93% 30.44 in 9.0 mi Calm Calm - N/A   Clear
1:53 AM 25.0 °F - 23.0 °F 92% 30.45 in 10.0 mi Calm Calm - N/A   Clear
2:53 AM 25.0 °F - 21.9 °F 88% 30.46 in 9.0 mi Calm Calm - N/A   Clear
3:53 AM 25.0 °F - 21.9 °F 88% 30.48 in 10.0 mi Calm Calm - N/A   Clear
4:53 AM 23.0 °F - 19.9 °F 88% 30.51 in 10.0 mi Calm Calm - N/A   Clear
5:53 AM 24.1 °F - 19.9 °F 84% 30.53 in 10.0 mi Calm Calm - N/A   Clear
6:53 AM 24.1 °F - 21.0 °F 88% 30.56 in 10.0 mi Calm Calm - N/A   Clear
8:53 AM 41.0 °F 39.0 °F 30.0 °F 65% 30.60 in 10.0 mi North 3.5 mph - N/A   Clear
9:53 AM 45.0 °F 40.6 °F 30.0 °F 56% 30.61 in 10.0 mi North 8.1 mph - N/A   Clear
10:53 AM 46.9 °F - 30.9 °F 54% 30.60 in 10.0 mi ENE 9.2 mph - N/A   Clear
11:53 AM 48.0 °F - 30.0 °F 50% 30.59 in 10.0 mi North 6.9 mph - N/A   Clear
12:53 PM 48.9 °F - 30.9 °F 50% 30.58 in 10.0 mi Calm Calm - N/A   Partly Cloudy
1:53 PM 48.0 °F - 30.9 °F 52% 30.58 in 10.0 mi Variable 3.5 mph - N/A   Clear
2:53 PM 48.0 °F - 32.0 °F 54% 30.59 in 10.0 mi NE 5.8 mph - N/A   Clear
3:53 PM 44.1 °F 40.8 °F 32.0 °F 63% 30.60 in 10.0 mi East 5.8 mph - N/A   Clear
4:53 PM 41.0 °F 39.0 °F 30.9 °F 67% 30.61 in 10.0 mi NNE 3.5 mph - N/A   Clear
5:53 PM 32.0 °F - 28.0 °F 85% 30.63 in 10.0 mi Calm Calm - N/A   Clear
6:53 PM 30.0 °F - 26.1 °F 85% 30.63 in 10.0 mi Calm Calm - N/A   Clear
7:53 PM 28.9 °F - 26.1 °F 89% 30.64 in 7.0 mi Calm Calm - N/A   Clear
8:53 PM 28.0 °F - 25.0 °F 88% 30.66 in 9.0 mi Calm Calm - N/A   Clear
9:10 PM 28.4 °F - 26.6 °F 93% 30.65 in 1.5 mi Calm Calm - N/A   Clear
9:21 PM 28.4 °F - 26.6 °F 93% 30.65 in 0.5 mi Calm Calm - N/A Fog Light Freezing Fog
9:34 PM 26.6 °F - 26.6 °F 100% 30.66 in 1.2 mi Calm Calm - N/A   Clear
9:38 PM 26.6 °F - 24.8 °F 93% 30.65 in 3.0 mi Calm Calm - N/A   Clear
9:53 PM 27.0 °F - 23.0 °F 85% 30.66 in 3.0 mi Calm Calm - N/A   Clear
9:59 PM 26.6 °F - 24.8 °F 93% 30.66 in 1.2 mi Calm Calm - N/A   Partly Cloudy
10:01 PM 26.6 °F - 24.8 °F 93% 30.66 in 0.8 mi Calm Calm - N/A   Mist
10:49 PM 24.8 °F - 23.0 °F 93% 30.66 in 1.2 mi Calm Calm - N/A   Partly Cloudy
10:50 PM 25.0 °F - 23.0 °F 92% 30.66 in 1.5 mi Calm Calm - N/A   Partly Cloudy
10:52 PM 24.8 °F - 23.0 °F 93% 30.66 in 3.0 mi Calm Calm - N/A   Clear
11:27 PM 24.8 °F - 23.0 °F 93% 30.66 in 1.8 mi Calm Calm - N/A   Partly Cloudy
11:41 PM 24.8 °F - 21.2 °F 86% 30.66 in 5.0 mi Calm Calm - N/A   Partly Cloudy
11:51 PM 26.6 °F - 24.8 °F 93% 30.66 in 1.5 mi Calm Calm - N/A   Partly Cloudy
11:53 PM 25.0 °F - 24.1 °F 96% 30.66 in 1.0 mi Calm Calm - N/A   Mist
11:55 PM 24.8 °F - 23.0 °F 93% 30.66 in 0.8 mi Calm Calm - N/A   Clear